This demonstration page uses our WeatherBlox Daily Observations layout. Learn more.

39.01783, -85.05884

Hourly Observations for December 13, 2018

Temp ( °F °C ) Dew Point ( °F °C ) Humidity (%) Winds ( mph kmh ) Pressure ( in mb ) Visibility ( mi km ) Precip ( " mm )
12:52 am 00:52 Partly Cloudy 41 5 35 1.7 79 79 SSW 7 11 30 1016 10 16.09344 0 0
1:52 am 01:52 Mostly Clear 42 5.6 36 2.2 79 79 SSW 8 13 30 1016 10 16.09344 0 0
2:52 am 02:52 Partly Cloudy 41 5 35 1.7 79 79 SW 8 13 30.03 1017 10 16.09344 0 0
3:52 am 03:52 Mostly Clear 38 3.3 33 0.6 83 83 SSW 6 9 30.03 1017 10 16.09344 0 0
4:52 am 04:52 Partly Cloudy 41 5 36 2.2 82 82 SSW 6 9 30.06 1018 10 16.09344 0 0
5:02 am 05:02 Mostly Cloudy 41 5 36 2.2 82 82 SSW 6 9 30.09 1019 10 16.09344 0 0
5:52 am 05:52 Mostly Cloudy 39 3.9 36 2.2 89 89 S 6 9 30.09 1019 10 16.09344 0 0
6:52 am 06:52 Cloudy 40 4.4 36 2.2 86 86 S 6 9 30.09 1019 10 16.09344 0 0
7:52 am 07:52 Cloudy 41 5 36 2.2 82 82 S 6 9 30.12 1020 10 16.09344 0 0
8:52 am 08:52 Cloudy 42 5.6 38 3.3 85 85 SSE 6 9 30.12 1020 10 16.09344 0 0
9:52 am 09:52 Cloudy 45 7.2 38 3.3 77 77 S 9 15 30.15 1021 10 16.09344 0 0
10:52 am 10:52 Cloudy 46 7.8 38 3.3 73 73 S 10 17 30.15 1021 10 16.09344 0 0
11:52 am 11:52 Cloudy 48 8.9 39 3.9 71 71 SE 9 15 30.12 1020 10 16.09344 0 0
12:52 pm 12:52 Cloudy 47 8.3 40 4.4 77 77 S 10 17 30.12 1020 10 16.09344 0 0
1:10 pm 13:10 Cloudy 48 8.9 41 5 77 77 S 10 17 30.15 1021 10 16.09344 0 0
1:38 pm 13:38 Cloudy 49 9.4 41 5 74 74 SE 9 15 30.15 1021 10 16.09344 0 0
1:52 pm 13:52 Cloudy 48 8.9 41 5 77 77 SE 10 17 30.09 1019 10 16.09344 0 0
2:52 pm 14:52 Cloudy 48 8.9 41 5 77 77 SE 8 13 30.12 1020 10 16.09344 0 0
3:52 pm 15:52 Cloudy 49 9.4 40 4.4 71 71 SE 8 13 30.12 1020 10 16.09344 0 0
4:52 pm 16:52 Mostly Cloudy 49 9.4 40 4.4 71 71 ESE 7 11 30.12 1020 10 16.09344 0 0
5:52 pm 17:52 Mostly Cloudy 48 8.9 40 4.4 74 74 ESE 6 9 30.12 1020 10 16.09344 0 0
6:52 pm 18:52 Mostly Cloudy 47 8.3 39 3.9 74 74 ESE 8 13 30.12 1020 10 16.09344 0 0
7:52 pm 19:52 Mostly Cloudy 47 8.3 39 3.9 74 74 ESE 8 13 30.12 1020 10 16.09344 0 0
8:52 pm 20:52 Partly Cloudy 45 7.2 38 3.3 77 77 ESE 7 11 30.12 1020 10 16.09344 0 0
9:52 pm 21:52 Cloudy 44 6.7 37 2.8 76 76 ESE 7 11 30.12 1020 10 16.09344 0 0
10:52 pm 22:52 Cloudy 45 7.2 37 2.8 74 74 ESE 8 13 30.12 1020 10 16.09344 0 0
11:52 pm 23:52 Cloudy 45 7.2 37 2.8 74 74 SE 8 13 30.09 1019 10 16.09344 0 0

Powered by AerisWeather